Wind_Speed
9 9 8 7 7 7 6 5 4 3 3 3 3 3 3 4 4 4 4 5 5 5 5 5 5 6 6 5 5 6 6 8 8 8 8 9 10 11 13 13 13 13 14
9 10 9 9 9 8 7 7 6 6 6 6 6 5 5 5 5 6 6 6 6 6 7 7 7 6 6 6 7 7 8 9 10 9 9 10 11 12 14 15 15 15 16
10 10 10 10 10 10 9 8 8 8 7 7 7 7 7 7 7 7 7 7 7 8 8 8 8 7 7 8 9 9 10 10 10 10 12 13 13 14 15 16 17 17 18
11 11 10 11 11 11 10 10 10 9 9 8 8 8 8 8 8 8 8 8 9 9 9 9 9 8 9 10 11 11 12 12 12 13 14 14 15 16 17 18 18 19 19
11 12 12 11 12 12 12 12 12 11 11 11 10 10 10 9 9 10 10 10 10 11 11 10 11 11 11 12 12 13 14 14 15 15 16 17 17 18 18 19 20 21 22
12 12 12 12 12 13 13 13 13 12 12 13 13 12 12 12 12 12 12 12 12 12 12 12 13 13 14 14 15 15 16 16 17 18 18 19 20 20 20 21 22 23 24
12 12 12 12 13 13 14 14 14 14 14 14 15 15 15 14 14 14 14 14 15 15 14 14 15 15 15 16 17 17 18 18 19 20 20 21 22 23 23 25 26 27 28
13 13 13 13 13 14 15 16 16 16 16 16 16 16 16 16 16 16 16 16 16 16 17 17 17 18 18 19 19 19 20 20 21 22 23 24 25 26 27 28 29 30 31
14 14 15 15 15 15 15 16 16 17 17 17 17 17 17 17 18 18 17 17 18 18 18 19 19 20 21 21 21 22 22 23 24 24 25 27 28 29 30 31 32 32 33
15 15 16 16 17 17 17 17 17 18 18 18 18 18 19 19 20 20 19 19 19 20 20 21 21 22 23 23 23 24 25 25 26 27 28 30 30 31 32 33 33 34 35
16 16 16 17 17 18 17 18 18 19 19 19 19 20 20 20 20 21 21 21 21 21 22 23 24 24 25 25 26 26 27 28 28 29 30 31 32 33 34 35 36 37 38
17 17 18 18 19 19 19 19 20 20 20 20 20 20 21 21 22 22 23 23 23 23 24 24 25 25 26 27 27 28 29 30 31 32 33 34 35 36 37 38 39 39 39
18 19 20 20 20 20 20 20 20 21 21 21 22 22 22 23 23 24 24 25 25 25 25 26 26 27 28 29 30 30 32 33 34 35 36 36 37 39 40 41 41 41 41
19 20 21 22 22 21 21 21 22 22 22 22 23 23 23 24 25 25 25 26 26 27 27 28 29 29 30 31 32 33 34 35 36 37 37 38 39 40 41 42 42 43 43
19 19 20 21 21 22 22 22 22 22 23 24 25 25 25 26 26 27 27 28 28 29 29 30 31 32 32 33 35 36 37 38 39 39 40 41 41 42 43 43 44 45 45
19 19 19 20 21 21 22 23 23 24 24 24 25 26 27 27 27 28 29 30 30 31 31 32 33 34 35 36 37 38 39 40 41 42 42 43 43 44 44 45 45 46 46
19 20 21 21 21 22 23 23 24 25 25 25 25 26 27 28 29 29 30 31 31 32 33 34 35 35 36 37 38 39 40 41 43 44 44 45 45 45 46 46 47 47 48
20 21 22 23 23 24 24 25 25 25 26 26 26 26 27 28 29 30 31 32 32 34 34 35 36 37 38 39 40 41 42 43 44 45 45 46 47 48 48 49 49 50 51
21 22 23 24 25 25 26 26 26 26 27 27 27 28 29 30 31 32 33 33 35 36 37 37 38 39 40 42 43 44 45 46 46 47 47 48 49 50 50 51 52 52 53
22 23 23 24 24 24 25 26 27 28 28 28 29 30 31 32 33 34 36 37 37 38 39 40 40 42 43 44 45 46 48 49 49 49 50 51 52 52 53 53 55 55 56
24 24 24 25 25 25 26 27 28 29 30 31 32 33 34 35 36 37 38 38 39 40 41 42 43 45 46 47 49 50 51 51 52 53 54 54 54 55 56 57 57 57 57
24 24 25 26 26 27 27 28 29 30 31 32 33 34 35 36 37 38 39 41 42 43 44 45 47 48 49 51 51 52 52 53 54 55 55 55 56 56 57 58 58 58 58
26 26 27 27 28 29 29 30 30 31 32 33 34 36 37 38 39 40 41 43 44 46 47 48 49 51 52 53 54 54 55 56 56 57 57 57 58 58 59 59 59 58 58
28 28 28 29 29 30 31 32 33 34 35 36 37 38 40 41 42 43 44 45 46 46 48 49 50 52 53 54 55 56 57 58 58 59 59 59 60 60 60 59 59 58 58
30 30 31 32 32 33 34 35 36 37 37 38 39 40 42 43 44 44 45 45 47 48 49 50 52 53 55 56 57 58 59 59 60 60 60 60 60 60 60 60 59 58 58
31 32 33 33 34 35 36 37 37 38 40 40 41 42 43 43 44 45 46 48 49 50 51 52 53 55 56 56 57 58 59 59 59 59 59 59 59 60 59 59 58 58 58
Wind_Direction
218 217 216 216 222 220 217 225 235 250 262 275 290 298 314 322 323 324 326 329 328 324 320 315 306 299 297 293 288 287 284 285 286 288 288 285 280 273 271 271 273 272 272
224 222 223 227 226 221 226 234 241 250 260 269 273 280 289 295 299 302 305 309 311 311 310 306 301 296 291 286 286 287 285 285 290 290 288 289 286 280 277 275 276 278 278
228 230 233 237 229 224 230 239 247 252 258 263 267 273 278 283 288 291 293 296 301 306 308 306 301 294 289 288 287 287 285 289 291 288 287 290 288 284 282 279 278 279 280
233 236 237 237 232 232 235 240 247 253 256 259 266 271 277 282 286 287 288 291 293 296 299 300 298 296 293 291 288 286 286 288 289 288 289 292 290 287 284 283 281 281 282
235 237 239 238 237 239 242 244 247 250 253 258 264 269 275 279 283 286 289 292 291 290 291 290 292 294 293 291 290 288 288 288 289 288 288 290 291 291 288 284 282 282 283
239 239 235 237 240 244 247 249 249 250 253 258 263 267 270 274 278 280 283 287 289 289 289 288 289 289 290 291 292 291 291 290 288 289 289 289 289 290 289 287 284 284 283
242 240 238 241 244 248 251 253 253 254 258 261 263 264 267 270 274 277 280 282 283 285 286 286 287 289 291 292 292 293 294 292 290 291 291 292 291 290 289 288 286 285 285
243 240 240 245 248 251 254 255 255 257 261 264 268 267 267 268 271 274 277 279 280 282 284 285 285 285 287 290 291 290 291 292 292 292 292 292 292 292 292 290 289 287 287
245 245 246 249 252 254 258 260 260 260 262 266 268 268 268 269 272 274 275 277 280 281 283 284 285 287 287 287 288 290 291 292 293 293 293 294 293 293 292 291 290 289 288
247 247 251 253 255 258 261 262 264 266 265 266 268 268 269 270 272 274 275 277 280 282 283 284 285 286 288 288 288 289 290 291 293 294 294 295 295 294 293 293 292 292 290
252 252 254 256 258 261 264 265 266 267 267 267 270 270 271 273 273 275 277 277 279 281 284 285 286 287 288 288 289 289 291 292 293 294 294 295 294 293 293 293 293 293 293
254 255 256 258 260 263 264 266 267 267 267 268 271 274 274 275 276 276 276 277 279 282 284 285 287 288 289 289 290 290 291 293 293 294 294 293 293 293 293 293 293 293 293
258 256 256 259 261 263 263 266 268 268 267 268 271 274 274 276 277 278 277 278 280 282 284 285 287 288 289 289 290 292 293 294 294 294 294 293 293 293 293 293 294 293 293
260 261 259 259 260 262 264 267 270 270 270 271 272 274 274 275 277 279 279 280 281 283 284 285 286 287 288 289 291 293 294 294 295 295 295 294 295 295 295 294 294 293 293
264 264 264 263 262 265 266 268 270 271 272 272 273 274 275 277 277 278 279 280 281 283 284 285 285 286 288 290 291 292 293 294 295 295 295 295 295 295 295 295 294 293 293
265 266 267 268 267 267 268 269 270 272 273 275 277 276 276 277 279 279 279 281 283 284 285 285 286 286 288 290 291 292 293 294 295 296 295 295 295 295 295 294 294 294 294
267 266 268 269 270 269 269 270 271 272 274 277 277 278 278 280 281 282 283 283 283 285 286 286 287 287 289 290 291 293 294 295 296 296 296 295 295 295 295 295 294 294 294
269 270 270 270 270 270 271 272 273 275 277 278 279 280 281 282 283 284 284 284 285 286 287 287 288 289 290 291 291 292 294 295 296 296 295 295 295 295 295 295 294 294 294
271 272 273 274 273 273 273 274 274 276 277 278 280 281 282 283 284 284 285 286 286 287 288 289 289 290 291 292 293 294 294 295 295 295 295 295 295 295 295 295 295 295 295
274 274 275 276 277 276 277 277 277 278 278 280 281 283 284 285 285 286 287 287 287 287 288 289 290 292 293 293 294 295 296 296 296 295 295 294 294 295 295 295 295 295 295
277 276 276 277 278 279 279 280 280 281 281 281 283 284 286 287 287 287 288 288 288 288 289 290 291 292 293 294 294 295 296 296 296 295 295 295 295 295 295 295 295 294 294
278 279 280 280 280 280 281 282 282 283 284 285 286 286 287 288 288 288 289 289 290 289 290 290 291 292 293 294 295 295 296 296 296 296 295 295 295 295 296 296 295 294 294
279 279 280 280 280 281 283 284 285 286 287 288 289 289 289 290 291 292 291 291 291 292 292 292 293 294 295 295 296 297 297 297 297 297 296 295 295 295 295 295 295 294 293
278 280 281 282 283 284 285 286 287 288 289 289 289 289 290 291 292 292 292 292 293 294 294 294 294 295 295 296 296 297 297 297 297 297 296 296 295 295 295 295 295 294 294
279 280 281 283 284 285 287 289 289 289 290 290 291 291 292 292 293 293 293 293 294 295 295 296 296 296 296 296 297 297 297 297 297 297 296 296 296 296 295 295 294 294 294
280 281 283 284 286 287 288 289 290 290 291 291 292 293 293 294 294 295 295 296 296 297 297 297 297 297 298 298 298 297 298 298 297 297 297 296 296 296 296 295 295 295 294
Height
5875 5876 5877 5878 5878 5879 5880 5880 5880 5880 5880 5880 5880 5879 5879 5878 5877 5876 5875 5874 5874 5873 5872 5870 5870 5869 5868 5867 5866 5866 5865 5864 5863 5863 5861 5860 5859 5858 5858 5858 5857 5857 5856
5872 5874 5875 5876 5877 5877 5878 5878 5879 5879 5879 5878 5878 5878 5877 5877 5876 5875 5874 5873 5873 5872 5870 5869 5868 5867 5866 5866 5865 5864 5863 5862 5861 5860 5859 5857 5856 5855 5854 5854 5853 5853 5853
5870 5871 5872 5873 5874 5875 5876 5876 5877 5877 5877 5876 5876 5876 5876 5875 5874 5874 5873 5872 5871 5870 5869 5868 5866 5865 5865 5864 5863 5862 5861 5860 5859 5857 5856 5854 5853 5852 5851 5850 5849 5849 5848
5868 5869 5870 5871 5872 5873 5873 5874 5874 5874 5874 5874 5874 5874 5873 5873 5872 5872 5871 5870 5869 5868 5867 5865 5864 5863 5863 5862 5861 5859 5858 5857 5856 5854 5853 5851 5849 5848 5846 5845 5844 5844 5843
5865 5866 5867 5868 5869 5870 5870 5871 5871 5872 5872 5872 5872 5871 5871 5870 5870 5869 5868 5867 5866 5865 5864 5863 5862 5861 5860 5859 5858 5857 5855 5854 5852 5850 5849 5847 5845 5843 5841 5840 5839 5839 5837
5863 5863 5864 5865 5866 5867 5867 5867 5868 5868 5868 5868 5868 5868 5867 5867 5867 5866 5865 5865 5864 5862 5861 5860 5859 5858 5857 5855 5854 5853 5851 5849 5848 5846 5844 5842 5840 5839 5837 5835 5834 5833 5831
5859 5860 5861 5862 5863 5863 5864 5864 5864 5864 5864 5864 5864 5864 5864 5863 5863 5862 5861 5861 5860 5859 5858 5856 5855 5854 5853 5851 5850 5848 5846 5845 5843 5841 5839 5837 5835 5833 5832 5830 5827 5826 5824
5856 5857 5858 5858 5859 5859 5860 5860 5860 5860 5860 5860 5860 5860 5859 5859 5859 5858 5857 5856 5855 5854 5853 5852 5851 5850 5848 5847 5845 5843 5841 5839 5837 5835 5833 5831 5829 5826 5824 5822 5820 5817 5815
5852 5853 5854 5855 5855 5855 5855 5856 5856 5856 5856 5856 5856 5855 5855 5854 5854 5853 5853 5852 5851 5850 5848 5847 5845 5844 5843 5841 5840 5838 5836 5833 5831 5829 5826 5824 5821 5819 5816 5814 5811 5809 5806
5848 5849 5850 5850 5851 5851 5851 5851 5851 5851 5851 5851 5851 5850 5850 5849 5849 5848 5847 5847 5846 5844 5843 5842 5840 5838 5837 5835 5833 5831 5829 5827 5825 5822 5819 5816 5813 5810 5807 5804 5801 5798 5796
5844 5845 5845 5845 5846 5846 5846 5846 5846 5846 5846 5846 5845 5845 5844 5844 5843 5842 5842 5841 5840 5839 5837 5836 5834 5832 5830 5828 5826 5824 5822 5820 5817 5814 5811 5808 5805 5801 5798 5794 5791 5788 5784
5839 5840 5840 5840 5841 5841 5841 5841 5841 5841 5841 5840 5840 5839 5839 5838 5837 5836 5836 5835 5834 5832 5831 5829 5827 5825 5823 5821 5819 5817 5814 5812 5809 5806 5803 5799 5796 5792 5788 5784 5781 5777 5773
5834 5835 5835 5835 5835 5835 5836 5836 5835 5835 5835 5835 5834 5834 5833 5832 5831 5830 5829 5828 5827 5826 5824 5822 5820 5818 5816 5814 5811 5809 5806 5803 5800 5797 5794 5790 5786 5782 5778 5774 5770 5766 5762
5829 5829 5829 5830 5830 5830 5830 5830 5830 5829 5829 5828 5828 5827 5827 5826 5825 5823 5822 5821 5820 5818 5817 5815 5813 5810 5808 5805 5803 5800 5797 5794 5790 5787 5783 5780 5776 5771 5767 5763 5759 5754 5750
5823 5823 5823 5823 5823 5824 5824 5824 5823 5823 5823 5822 5821 5821 5820 5819 5818 5816 5815 5813 5812 5810 5809 5807 5804 5802 5799 5797 5794 5790 5787 5784 5780 5776 5772 5768 5764 5760 5755 5751 5746 5742 5738
5818 5817 5818 5818 5817 5817 5817 5817 5817 5817 5816 5815 5814 5814 5812 5811 5810 5808 5807 5805 5804 5802 5800 5798 5795 5793 5790 5787 5784 5780 5777 5773 5769 5765 5761 5756 5752 5748 5743 5738 5734 5729 5725
5812 5812 5811 5811 5811 5811 5811 5810 5810 5809 5808 5808 5807 5806 5805 5803 5802 5800 5799 5797 5795 5793 5791 5788 5786 5783 5780 5777 5773 5770 5766 5762 5757 5753 5748 5744 5739 5735 5730 5726 5721 5716 5712
5806 5806 5805 5805 5805 5804 5803 5803 5802 5801 5801 5800 5799 5797 5796 5795 5793 5792 5790 5788 5786 5783 5781 5778 5775 5772 5769 5766 5762 5758 5754 5750 5745 5741 5736 5731 5726 5722 5717 5712 5707 5702 5698
5800 5799 5799 5798 5798 5797 5796 5796 5795 5794 5793 5792 5791 5789 5788 5786 5784 5783 5780 5778 5776 5773 5771 5768 5765 5761 5758 5754 5750 5746 5742 5737 5732 5728 5723 5718 5713 5708 5703 5698 5693 5688 5683
5793 5792 5792 5791 5790 5790 5789 5788 5787 5786 5785 5784 5782 5781 5779 5777 5775 5773 5771 5768 5765 5762 5760 5756 5753 5750 5746 5742 5737 5733 5728 5723 5718 5714 5709 5704 5698 5693 5688 5683 5678 5672 5667
5786 5785 5785 5784 5783 5783 5782 5780 5779 5778 5776 5775 5773 5771 5769 5767 5765 5762 5760 5757 5754 5751 5748 5744 5741 5737 5733 5728 5724 5719 5714 5709 5704 5699 5694 5688 5683 5678 5672 5667 5661 5655 5650
5779 5778 5777 5776 5775 5775 5773 5772 5770 5769 5767 5766 5764 5762 5759 5757 5754 5752 5749 5745 5742 5739 5735 5731 5727 5723 5719 5714 5709 5704 5699 5694 5688 5683 5677 5672 5666 5661 5655 5650 5644 5638 5632
5771 5770 5769 5769 5767 5766 5765 5763 5762 5760 5758 5756 5754 5751 5749 5746 5743 5740 5736 5733 5729 5725 5721 5717 5713 5708 5703 5698 5693 5688 5683 5678 5672 5666 5661 5655 5649 5644 5638 5632 5626 5620 5615
5763 5762 5761 5760 5759 5757 5756 5754 5752 5750 5748 5745 5743 5740 5737 5734 5730 5727 5723 5719 5715 5711 5707 5703 5698 5693 5688 5683 5677 5672 5666 5660 5654 5649 5643 5637 5632 5626 5620 5614 5608 5602 5597
5755 5754 5753 5751 5750 5748 5746 5744 5742 5739 5737 5734 5731 5728 5725 5721 5718 5714 5710 5706 5701 5697 5692 5688 5683 5677 5672 5666 5661 5655 5649 5642 5636 5630 5624 5618 5613 5607 5601 5595 5590 5584 5579
5745 5744 5743 5741 5740 5738 5735 5733 5731 5728 5725 5722 5719 5715 5712 5708 5704 5700 5696 5692 5687 5682 5677 5672 5667 5661 5656 5650 5643 5637 5631 5624 5618 5612 5606 5600 5594 5588 5582 5576 5571 5566 5560